Location: Newark
(46.1292°N, 1.0086°W)
Time: 11:36:02
(UTC+00:00)

Transit 4A - Pass Details

Date: 20 November 2019
Orbit: 870 x 975 km, 66.8° (Epoch: 09 December)

Event Time Altitude Azimuth Distance (km) Brightness Sun altitude
Exits shadow 03:44:10 13° 8° (N) 2,372 10.1 -35.6°
Maximum altitude 03:45:26 14° 22° (NNE) 2,313 10.2 -35.3°
Drops below altitude 10° 03:48:18 10° 51° (NE) 2,553 10.8 -34.8°
Sets 03:52:14 0° 77° (ENE) 3,474 11.9 -34.2°
